This is the latest recevied weather packets stored in our database for station/object K6JWN. If no packets are shown the sender has not sent any weather packets the latest 10 day(s).
| Time | Temp. | Humidity | Pressure | Rain* | Wind** | Luminosity | Snow |
|---|---|---|---|---|---|---|---|
| 1787441057 | 34.44° C | 11% | 1012.5 hPa | 0 mm | - | - | - |
| 1787440457 | 35° C | 12% | 1012.7 hPa | 0 mm | - | - | - |
| 1787439857 | 34.44° C | 11% | 1012.9 hPa | 0 mm | - | - | - |
| 1787439257 | 33.89° C | 13% | 1013 hPa | 0 mm | - | - | - |
| 1787438656 | 33.89° C | 13% | 1013.2 hPa | 0 mm | - | - | - |
| 1787438057 | 33.89° C | 13% | 1013.4 hPa | 0 mm | - | - | - |
| 1787437457 | 33.89° C | 13% | 1013.4 hPa | 0 mm | - | - | - |
| 1787436857 | 34.44° C | 13% | 1013.6 hPa | 0 mm | - | - | - |
| 1787436257 | 33.89° C | 13% | 1013.8 hPa | 0 mm | - | - | - |
| 1787435657 | 33.33° C | 14% | 1014 hPa | 0 mm | - | - | - |
| 1787435056 | 33.33° C | 15% | 1014.2 hPa | 0 mm | - | - | - |
| 1787434456 | 32.78° C | 16% | 1014.1 hPa | 0 mm | - | - | - |
| 1787433856 | 32.78° C | 16% | 1014.2 hPa | 0 mm | - | - | - |
| 1787433257 | 32.78° C | 18% | 1014.3 hPa | 0 mm | - | - | - |
| 1787432657 | 32.22° C | 19% | 1014.5 hPa | 0 mm | - | - | - |
| 1787432057 | 32.22° C | 21% | 1014.5 hPa | 0 mm | - | - | - |
| 1787431457 | 31.67° C | 21% | 1014.6 hPa | 0 mm | - | - | - |
| 1787430856 | 32.22° C | 19% | 1014.7 hPa | 0 mm | - | - | - |
| 1787430256 | 31.11° C | 21% | 1014.8 hPa | 0 mm | - | - | - |
| 1787429657 | 31.11° C | 25% | 1015 hPa | 0 mm | - | - | - |
| 1787429057 | 30° C | 23% | 1015.1 hPa | 0 mm | - | - | - |
| 1787428457 | 30° C | 27% | 1015.1 hPa | 0 mm | - | - | - |
| 1787427856 | 28.89° C | 29% | 1015.3 hPa | 0 mm | - | - | - |
| 1787427257 | 28.89° C | 29% | 1015.3 hPa | 0 mm | - | - | - |
| 1787426656 | 28.33° C | 32% | 1015.6 hPa | 0 mm | - | - | - |
* Rain latest hour (hover to see other rain measurements)
** Current wind speed in m/s (hover to see current wind gust speed)